Location: Eaton
(41.3139°N, 82.0207°W)
Time: 13:08:07
(UTC+00:00)

Cosmos 1624 Rocket - Pass Details

Date: 17 June 2021
Orbit: 758 x 783 km, 74.0° (Epoch: 30 July)

Event Time Altitude Azimuth Distance (km) Brightness Sun altitude
Rises 01:28:37 0° 196° (SSW) 3,253 7.0 -4.7°
Reaches altitude 10° 01:30:59 10° 196° (SSW) 2,328 6.3 -5.0°
Maximum altitude 01:36:17 86° 109° (ESE) 786 4.1 -5.8°
Drops below altitude 10° 01:41:36 10° 20° (NNE) 2,331 6.8 -6.6°
Sets 01:43:59 0° 20° (NNE) 3,258 7.5 -6.9°
